York, NE

6:43 PM CST on December 05, 2019 (GMT -0600)
York Municipal

Weather History for KJYR - October, 2019

Change the Weather History Date:

Friday, October 18, 2019

  Actual Average Record
Temperature  
Mean Temperature 64 °F -  
Max Temperature 77 °F 61 °F 89 °F (2003)
Min Temperature 51 °F 40 °F 28 °F (1990)
Degree Days  
Heating Degree Days 1    
Growing Degree Days 14 (Base 50)    
Moisture  
Dew Point 43 °F    
Average Humidity 54    
Maximum Humidity 88    
Minimum Humidity 29    
Precipitation  
Precipitation 0.00 in - - ()
Sea Level Pressure  
Sea Level Pressure 29.59 in    
Wind  
Wind Speed 14 mph (SSW)    
Max Wind Speed 25 mph    
Max Gust Speed 36 mph    
Visibility 10 miles    
Events Rain    
Averages and records for this station are not official NWS values.
T = Trace of Precipitation, MM = Missing Value Source: NWS Daily Summary

Daily Weather History Graph

Daily Weather History Graph

Search for Another Location

Airport or City:

Astronomy

Oct. 18, 2019 Rise Set
Actual Time 7:44 AM CDT 6:45 PM CDT
Civil Twilight 7:17 AM CDT 7:13 PM CDT
Nautical Twilight 6:45 AM CDT 7:45 PM CDT
Astronomical Twilight 6:13 AM CDT 8:17 PM CDT
Moon 10:01 PM CDT (10/18) 12:20 PM CDT (10/18)
Length of Visible Light 11h 56m
Length of Day
11h 00m
Waning Gibbous, 78% of the Moon is Illuminated
Oct 18
Waning Gibbous
Oct 21
Last Quarter
Oct 27
New
Nov 4
First Quarter
Nov 12
Full

Hourly Weather History & Observations

Time (CDT) Temp. Dew Point Humidity Pressure Visibility Wind Dir Wind Speed Gust Speed Precip Events Conditions
12:15 AM 55.4 °F 42.8 °F 63% 29.69 in 10.0 mi SSE 11.5 mph - N/A   Clear
12:35 AM 55.4 °F 42.8 °F 63% 29.69 in 10.0 mi SSE 12.7 mph 18.4 mph N/A   Clear
12:55 AM 55.4 °F 42.8 °F 63% 29.68 in 10.0 mi SSE 10.4 mph - N/A   Clear
1:15 AM 53.6 °F 42.8 °F 67% 29.68 in 10.0 mi SSE 9.2 mph - N/A   Clear
1:35 AM 53.6 °F 42.8 °F 67% 29.68 in 10.0 mi SSE 11.5 mph - N/A   Clear
1:55 AM 53.6 °F 42.8 °F 67% 29.68 in 10.0 mi SSW 12.7 mph - N/A   Clear
2:15 AM 53.6 °F 42.8 °F 67% 29.67 in 10.0 mi SSW 12.7 mph - N/A   Clear
2:35 AM 53.6 °F 42.8 °F 67% 29.66 in 10.0 mi SSW 12.7 mph - N/A   Clear
2:55 AM 53.6 °F 41.0 °F 62% 29.66 in 10.0 mi South 13.8 mph - N/A   Clear
3:15 AM 53.6 °F 41.0 °F 62% 29.66 in 10.0 mi SSW 11.5 mph - N/A   Clear
3:35 AM 53.6 °F 41.0 °F 62% 29.65 in 10.0 mi South 11.5 mph - N/A   Clear
3:55 AM 53.6 °F 41.0 °F 62% 29.64 in 10.0 mi SW 12.7 mph 18.4 mph N/A   Clear
4:15 AM 53.6 °F 41.0 °F 62% 29.63 in 10.0 mi SSW 12.7 mph - N/A   Clear
4:35 AM 53.6 °F 41.0 °F 62% 29.62 in 10.0 mi SSW 13.8 mph - N/A   Clear
4:55 AM 53.6 °F 41.0 °F 62% 29.61 in 10.0 mi South 12.7 mph 19.6 mph N/A   Clear
5:15 AM 53.6 °F 41.0 °F 62% 29.60 in 10.0 mi South 19.6 mph 23.0 mph N/A   Clear
5:35 AM 53.6 °F 41.0 °F 62% 29.59 in 10.0 mi South 16.1 mph 24.2 mph N/A   Clear
5:55 AM 53.6 °F 41.0 °F 62% 29.59 in 10.0 mi South 15.0 mph 20.7 mph N/A   Clear
6:15 AM 53.6 °F 41.0 °F 62% 29.58 in 10.0 mi South 16.1 mph - N/A   Clear
6:35 AM 53.6 °F 41.0 °F 62% 29.58 in 10.0 mi South 12.7 mph - N/A   Clear
6:55 AM 53.6 °F 41.0 °F 62% 29.58 in 10.0 mi South 12.7 mph 20.7 mph N/A   Clear
7:15 AM 53.6 °F 41.0 °F 62% 29.58 in 10.0 mi South 16.1 mph 20.7 mph N/A   Clear
7:35 AM 53.6 °F 41.0 °F 62% 29.57 in 10.0 mi South 17.3 mph 23.0 mph N/A   Clear
7:55 AM 53.6 °F 41.0 °F 62% 29.56 in 10.0 mi SSE 13.8 mph - N/A   Clear
8:15 AM 51.8 °F 41.0 °F 67% 29.56 in 10.0 mi SSE 13.8 mph 20.7 mph N/A   Clear
8:35 AM 53.6 °F 41.0 °F 62% 29.56 in 10.0 mi SW 13.8 mph 19.6 mph N/A   Clear
8:55 AM 53.6 °F 41.0 °F 62% 29.55 in 10.0 mi South 16.1 mph 21.9 mph N/A   Clear
9:15 AM 55.4 °F 41.0 °F 58% 29.54 in 10.0 mi South 18.4 mph - N/A   Clear
9:35 AM 55.4 °F 42.8 °F 63% 29.53 in 10.0 mi South 18.4 mph 25.3 mph N/A   Clear
9:55 AM 57.2 °F 44.6 °F 63% 29.52 in 10.0 mi South 16.1 mph 24.2 mph N/A   Clear
10:15 AM 59.0 °F 44.6 °F 59% 29.51 in 10.0 mi South 21.9 mph 28.8 mph N/A   Clear
10:35 AM 62.6 °F 44.6 °F 52% 29.51 in 10.0 mi South 20.7 mph 33.4 mph N/A   Clear
10:55 AM 64.4 °F 44.6 °F 49% 29.51 in 10.0 mi South 20.7 mph 27.6 mph N/A   Clear
11:15 AM 66.2 °F 44.6 °F 46% 29.51 in 10.0 mi SSW 24.2 mph 33.4 mph N/A   Clear
11:35 AM 66.2 °F 44.6 °F 46% 29.50 in 10.0 mi South 24.2 mph 31.1 mph N/A   Clear
11:55 AM 68.0 °F 44.6 °F 43% 29.49 in 10.0 mi South 24.2 mph 33.4 mph N/A   Clear
12:15 PM 68.0 °F 44.6 °F 43% 29.49 in 10.0 mi South 21.9 mph 33.4 mph N/A   Clear
12:35 PM 71.6 °F 46.4 °F 41% 29.48 in 10.0 mi South 25.3 mph 29.9 mph N/A   Clear
12:55 PM 71.6 °F 44.6 °F 38% 29.48 in 10.0 mi SSW 25.3 mph 34.5 mph N/A   Clear
1:15 PM 71.6 °F 44.6 °F 38% 29.48 in 10.0 mi SSW 24.2 mph 35.7 mph N/A   Clear
1:35 PM 73.4 °F 44.6 °F 36% 29.48 in 10.0 mi SSW 20.7 mph 35.7 mph N/A   Clear
1:55 PM 75.2 °F 46.4 °F 36% 29.47 in 10.0 mi SSW 18.4 mph 27.6 mph N/A   Clear
2:15 PM 75.2 °F 46.4 °F 36% 29.47 in 10.0 mi SSW 20.7 mph 33.4 mph N/A   Clear
2:35 PM 75.2 °F 46.4 °F 36% 29.47 in 10.0 mi SSW 20.7 mph 31.1 mph N/A   Clear
2:55 PM 77.0 °F 44.6 °F 32% 29.47 in 10.0 mi SSW 21.9 mph 29.9 mph N/A   Clear
3:15 PM 77.0 °F 46.4 °F 34% 29.48 in 10.0 mi SSW 21.9 mph 26.5 mph N/A   Clear
3:35 PM 77.0 °F 46.4 °F 34% 29.48 in 10.0 mi SSW 19.6 mph 25.3 mph N/A   Clear
3:55 PM 77.0 °F 46.4 °F 34% 29.49 in 10.0 mi SSW 18.4 mph 26.5 mph N/A   Clear
4:15 PM 77.0 °F 46.4 °F 34% 29.49 in 10.0 mi SSW 18.4 mph 25.3 mph N/A   Clear
4:35 PM 77.0 °F 46.4 °F 34% 29.49 in 10.0 mi SSW 20.7 mph 25.3 mph N/A   Clear
4:55 PM 77.0 °F 46.4 °F 34% 29.50 in 10.0 mi SSW 16.1 mph 23.0 mph N/A   Clear
5:15 PM 77.0 °F 48.2 °F 36% 29.51 in 10.0 mi South 15.0 mph - N/A   Clear
5:35 PM 73.4 °F 39.2 °F 29% 29.53 in 10.0 mi WNW 4.6 mph - N/A   Clear
5:55 PM 71.6 °F 39.2 °F 31% 29.54 in 10.0 mi South 4.6 mph - N/A   Clear
6:15 PM 71.6 °F 39.2 °F 31% 29.55 in 10.0 mi NNW 3.5 mph - N/A   Clear
6:35 PM 68.0 °F 41.0 °F 37% 29.57 in 10.0 mi NNW 9.2 mph - N/A   Clear
6:55 PM 64.4 °F 41.0 °F 42% 29.59 in 10.0 mi NNW 8.1 mph - N/A   Clear
7:15 PM 62.6 °F 41.0 °F 45% 29.60 in 10.0 mi NNW 5.8 mph - N/A   Clear
7:35 PM 62.6 °F 41.0 °F 45% 29.62 in 10.0 mi NNW 6.9 mph - N/A   Clear
7:55 PM 60.8 °F 41.0 °F 48% 29.63 in 10.0 mi NNE 8.1 mph - N/A   Clear
8:15 PM 59.0 °F 42.8 °F 55% 29.64 in 10.0 mi NE 9.2 mph - N/A   Clear
8:35 PM 57.2 °F 42.8 °F 59% 29.64 in 10.0 mi NE 8.1 mph - N/A   Clear
8:55 PM 57.2 °F 42.8 °F 59% 29.65 in 10.0 mi NE 6.9 mph - N/A   Clear
9:15 PM 55.4 °F 42.8 °F 63% 29.66 in 10.0 mi ENE 9.2 mph - N/A   Scattered Clouds
9:35 PM 55.4 °F 44.6 °F 67% 29.66 in 10.0 mi NNE 8.1 mph - N/A   Mostly Cloudy
9:55 PM 55.4 °F 44.6 °F 67% 29.68 in 10.0 mi NNE 5.8 mph - N/A   Overcast
10:15 PM 57.2 °F 44.6 °F 63% 29.70 in 10.0 mi North 3.5 mph - N/A   Overcast
10:35 PM 57.2 °F 42.8 °F 59% 29.71 in 10.0 mi NNW 4.6 mph - N/A   Overcast
10:55 PM 55.4 °F 44.6 °F 67% 29.74 in 10.0 mi NW 9.2 mph - N/A Rain Light Rain
11:15 PM 53.6 °F 46.4 °F 77% 29.75 in 9.0 mi NW 9.2 mph - N/A Rain Light Rain
11:35 PM 53.6 °F 46.4 °F 77% 29.76 in 10.0 mi NW 3.5 mph - N/A   Overcast
11:55 PM 51.8 °F 48.2 °F 88% 29.76 in 10.0 mi South 3.5 mph - N/A   Overcast